www.pogodaiklimat.ru

Погода и климат >> Архив погоды >> Аргентина >> Las Lomitas


ПОГОДА в Las Lomitas

  • Прогноз погоды в Las Lomitas
  • Монитор погоды в Las Lomitas
  • Климат города

АРХИВ ПОГОДЫ в Las Lomitas

Время (UTC), дата Ветер
(напр.,м/с)
 
Видим.   Явления Облачность Т
(С)
Тd
(С)
f
(%)
Тe
(С)
Тes
(С)
Комфортность P
(гПа)
Po
(гПа)
Тmin
(С)
Tmax
(С)
R
(мм)
R24
(мм)
S
(см)
09 11.08 штиль 0 20 км ясно +7.4 +3.7 77 +7 +7 1020.2 1004.6
12 11.08 В 1 20 км ясно +12.0 +4.6 61 +13 +16 1022.1 1006.4 +6.5 +14.4
15 11.08 СВ 1 20 км ясно +21.4 +4.4 33 +22 +36 комфорт 1021.6 1006.2
18 11.08 В 1 20 км ясно +26.0 +3.1 23 +25 +36 комфорт 1018.0 1002.6
21 11.08 В 1 20 км ясно +25.0 +2.5 23 +24 +24 комфорт 1016.2 1000.8
00 12.08 В 1 20 км ясно +17.5 +4.9 43 +19 +19 1016.9 1001.4 +12.0 +26.9
09 12.08 ЮВ 1 20 км ясно +12.6 +4.3 57 +13 +13 1017.4 1002.1
12 12.08 ЮВ 2 20 км ясно +14.8 +4.1 49 +15 +17 1018.6 1003.2 +12.6 +17.5
15 12.08 СВ 2 20 км ясно +27.8 +5.2 24 +27 +39 жарко 1018.3 1003.2
18 12.08 СВ 3 20 км ясно +33.0 +7.6 21 +31 +40 жарко 1011.8 996.8
21 12.08 СВ 2 20 км ясно +32.6 +7.5 21 +31 +32 жарко 1010.2 995.2
00 13.08 СВ 1 20 км ясно +25.0 +10.4 40 +26 +26 жарко 1011.8 996.6 +14.8 +33.5
09 13.08 СВ 1 20 км ясно +15.8 +9.5 66 +17 +17 1010.4 995.4
12 13.08 СВ 2 20 км ясно +20.5 +10.5 53 +23 +26 комфорт 1011.8 996.8 +15.8 +25.0
15 13.08 СВ 3 20 км ясно +30.8 +9.9 27 +30 +41 жарко 1011.1 996.2
18 13.08 СВ 3 20 км ясно +35.0 +11.0 23 +34 +42 очень
жарко
1009.7 994.9
21 13.08 СВ 3 20 км 3/0
[Ci]
+33.8 +10.8 25 +33 +34 жарко 1009.4 994.5
00 14.08 штиль 0 20 км ясно +27.4 +12.5 40 +29 +29 жарко 1011.2 996.2
09 14.08 Ю 2 15 км гроза без осадков {дождь} 10/4 1500 м
[Cb cap Ac As]
+20.6 +14.1 66 +24 +24 комфорт 1013.3 998.5
12 14.08 Ю 2 10 км гроза, ливневой дождь 10/4 1200 м
[Cb cap As op]
+18.4 +17.1 92 +20 +20 1018.4 1003.3 +18.4 +27.4 16
15 14.08 Ю 3 20 км в посл. час гроза {дождь} 10/10 450 м
[St]
+17.4 +16.1 92 +18 +18 1020.7 1005.6
18 14.08 Ю 3 20 км {гроза, дождь} 10/10 300 м
[St]
+17.8 +16.1 90 +18 +18 1020.1 1004.8 7
21 14.08 Ю 3 10 км сильная морось 10/10 240 м
[Frnb]
+14.6 +14.1 97 +14 +14 1021.3 1005.8
00 15.08 Ю 2 20 км в посл. час морось 10/10 300 м
[St]
+14.2 +12.9 92 +14 +14 1022.3 1006.8 +14.2 +18.1 0.0
09 15.08 Ю 1 20 км 4/0
[Ci]
+11.8 +7.7 76 +12 +12 1025.6 1010.0
12 15.08 Ю 1 20 км 3/0
[Ac trans]
+12.6 +7.8 73 +13 +15 1027.0 1011.3 +11.8 +14.2 7
15 15.08 ЮВ 1 20 км 3/0
[Ac trans Ci]
+19.2 +7.6 47 +21 +34 комфорт 1027.6 1012.1
18 15.08 ЮВ 2 20 км 8/0
[Ac As]
+21.2 +5.8 37 +22 +27 комфорт 1023.8 1008.2
21 15.08 штиль 0 20 км 3/0
[Ac trans]
+21.0 +7.1 41 +22 +22 комфорт 1021.9 1006.4
00 16.08 штиль 0 20 км ясно +14.8 +11.5 81 +15 +15 1022.7 1007.0 +12.6 +22.4
09 16.08 штиль 0 20 км ясно +9.3 +6.5 83 +9 +9 1021.8 1006.2
12 16.08 В 1 20 км ясно +12.8 +7.5 70 +14 +17 1023.4 1007.7 +8.2 +14.8
15 16.08 З 1 20 км ясно +21.6 +9.0 44 +23 +38 комфорт 1023.6 1008.1
18 16.08 ЮВ 1 20 км ясно +25.8 +5.3 27 +25 +37 комфорт 1023.3 1007.8
21 16.08 ЮВ 1 20 км 1/0
[Ci]
+25.0 +9.5 37 +26 +26 жарко 1022.6 1007.2
00 17.08 штиль 0 20 км ясно +18.6 +10.1 58 +19 +19 1023.3 1007.7 +12.8 +26.5
09 17.08 штиль 0 20 км ясно +12.6 +9.5 81 +12 +12 1019.5 1004.2
12 17.08 В 1 20 км ясно +16.6 +12.3 76 +17 +21 1020.4 1005.0 +12.6 +18.6
15 17.08 СВ 3 20 км ясно +27.6 +13.6 42 +29 +41 жарко 1020.1 1005.0
18 17.08 СВ 2 20 км ясно +31.0 +13.4 34 +32 +43 жарко 1015.6 1000.5
21 17.08 В 1 20 км ясно +29.3 +13.6 38 +31 +32 жарко 1014.4 999.2

 

Местоположение метеостанции Las Lomitas (Аргентина): широта -24.70 долгота -60.58 высота над уровнем моря 130 м.

В архиве по умолчанию представлена погода в Las Lomitas за последнюю неделю. Архивные данные за месяц целиком и за предыдущие месяцы, начиная с января 2011 года, Вы можете получить, выбрав интересующий диапазон дат из раскрывающегося списка и нажав кнопку "Ввод!".


*Определитесь, кто Вы:
робот инопланетянин человек

Внимание! Время в таблицах - всемирное. Для получения местного времени необходимо прибавить поправку, которая в Las Lomitas равна -3 ч.

Смотрите также архив погоды в соседних городах и на ближайших метеорологических станциях:

Погода в Gral. Bruguez (Парагвай) (177 км)
Погода в Pozo Colorado (Парагвай) (225 км)
Погода в Presidencia Roque Saenz Pena (Аргентина) (226 км)
Погода в Prats-Gil (Парагвай) (241 км)
Погода в Formosa (Аргентина) (289 км)
Погода в Mariscal Estigar (Парагвай) (299 км)
Погода в Asuncion (Парагвай) (316 км)
Погода в Pilar (Парагвай) (330 км)
Погода в Resistencia (Аргентина) (342 км)
Погода в Corrientes (Аргентина) (356 км)

Пояснения к столбцам:

Ветер - указаны скорость ветра в м/с - средняя за 10 мин, порывы в срок и между сроками (в фигурных скобках) и направление, откуда дует ветер: С - северный, СВ - северо-восточный, В - восточный, ЮВ - юго-восточный, Ю - южный, ЮЗ - юго-западный, З - западный, СЗ - северо-западный.
Видимость - горизонтальная дальность видимости в метрах или километрах. При видимости от 1 до 10 км при отсутствии осадков обычно наблюдается дымка, при ухудшении видимости до 1 км и менее - туман. В сухую погоду видимость может ухудшаться дымом, пылью или мглою.
Явления - указаны атмосферные явления, наблюдавшиеся в срок или в последний час перед сроком; фигурными скобками обозначены явления, наблюдавшиеся между сроками (за 1-3 часа до срока); квадратными скобками обозначены град или гололедные отложения с указанием их диаметра в мм.
Облачность - указаны через наклонную черту общая и нижняя облачность в баллах и высота нижней границы облаков в метрах; квадратными скобками обозначены формы облаков: Ci - перистые, Cs - перисто-слоистые, Cc - перисто-кучевые, Ac - высококучевые, As - высокослоистые, Sc - слоисто-кучевые, Ns - слоисто-дождевые, Cu - кучевые, Cb - кучево-дождевые. Подробнее классификацию облаков см. в Атласе облаков (PDF).
T - Температура воздуха - температура, измеренная на высоте 2 м над землей.
Td - Температура точки росы - температура, при понижении до которой содержащийся в воздухе водяной пар достигнет насыщения.
f - Относительная влажность воздуха - влажноcть воздуха, измеренная на высоте 2 м над землей.
Te - Эффективная температура - температура, которую ощущает одетый по сезону человек в тени. Характеристика душности погоды. При расчете учитывается влияние влажности воздуха и скорости ветра на теплоощущения человека.
Tes - Эффективная температура на солнце - температура, которую ощущает человек, с поправкой на солнечный нагрев. Характеристика знойности погоды. Зависит от высоты солнца над горизонтом, облачности и скорости ветра. Ночью, в пасмурную погоду, а также при ветре 12 м/с и более поправка равна нулю.
P - Атмосферное давление - приведенное к уровню моря атмосферное давление.
Po - Атмосферное давление - измеренное на уровне метеостанции атмосферное давление.
Tmin - Минимальная температура - минимум температуры воздуха на высоте 2 м над землей.
Tmax - Максимальная температура - максимум температуры воздуха на высоте 2 м над землей.
R - Количество осадков - Количество выпавших осадков за период времени, мм. При наведении курсора мыши на число - период времени, за который выпало указанное количество осадков.
R24 - Количество осадков - Количество выпавших осадков за 24 часа, мм.
S - Снежный покров - Высота снежного покрова, см. При наведении курсора мыши на число - состояние снежного покрова и степень покрытия местности в баллах.